x

Frying Pan Shoals, Nc Buoy (41013) Weather Station

1:20pm - Thu 25th May 2017 All times are EDT. -4 hours from GMT.

  • Wind
    25mph, 31mph gusts
  • Sea Temp 76°f
  • Air Temp 73°f
  • Sea Pressure 1004.6mb
  • Frying Pan Shoals, Nc Buoy
  • Frying Pan Shoals, Nc Buoy

More Historic Weather Station data

Upgrade to MSW Pro to gain access to the past 30 days of data for over 8000 Wavebouys and Weather Stations around the globe.

Join Pro

Comparision Forecast

View Surf forecast
   
Thu 05/25 1:20pm  -   -   -  25 31 mph 1004.6mb 76f 73f
1:10pm  -   -   -  27 34 mph 1004.8mb 76f 73f
1:00pm  -   -   -  27 34 mph 1004.9mb 76f 73f
12:50pm 10ft 8s 6s 27 34 mph 1004.8mb 76f 73f
12:40pm  -   -   -  27 34 mph 1004.9mb 76f 73f
12:30pm  -   -   -  27 34 mph 1004.8mb 76f 73f
12:20pm  -   -   -  27 34 mph 1005mb 76f 73f
12:10pm  -   -   -  27 34 mph 1005mb 76f 73f
12:00pm  -   -   -  29 36 mph 1005.1mb 76f 73f
11:50am 10ft 9s 6s 27 34 mph 1005mb 76f 73f
11:40am 10ft  -  6s 27 34 mph 1005mb 76f 73f
11:30am  -   -   -  27 36 mph 1005mb 76f 73f
11:20am  -   -   -  29 34 mph 1005.1mb 76f 73f
11:10am  -   -   -  27 36 mph 1005mb 76f 73f
11:00am  -   -   -  27 34 mph 1005mb - 74f
10:50am 9ft 8s 6s 27 36 mph 1004.9mb 76f 74f
10:40am 9ft  -  6s 29 36 mph 1005mb 76f 74f
10:30am  -   -   -  29 36 mph 1004.9mb 76f 74f
10:20am  -   -   -  29 38 mph 1004.8mb 76f 74f
10:10am  -   -   -  29 38 mph 1004.8mb 76f 74f
10:00am  -   -   -  29 36 mph 1004.8mb 76f 73f
9:50am 9ft 9s 6s 29 36 mph 1004.8mb 76f 74f
9:40am 9ft  -  6s 29 36 mph 1004.6mb 76f 74f
9:30am  -   -   -  29 36 mph 1004.5mb 76f 74f
9:20am  -   -   -  29 36 mph 1004.3mb 76f 74f
9:10am  -   -   -  27 34 mph 1004.1mb 76f 74f
9:00am  -   -   -  29 34 mph 1004.7mb - 74f
8:50am 9ft 9s 6s 27 31 mph 1003.6mb 76f 74f
8:40am 9ft  -  6s 27 34 mph 1003.5mb 76f 74f
8:30am  -   -   -  27 34 mph 1003.5mb 76f 74f
8:20am  -   -   -  29 36 mph 1003.4mb 76f 75f
8:10am  -   -   -  31 38 mph 1003.1mb 76f 75f
8:00am  -   -   -  31 40 mph 1002.9mb 76f 75f
7:50am 9.5ft 9s 6s 31 38 mph 1002.6mb 76f 76f
7:40am  -   -   -  31 40 mph 1002.5mb 76f 76f
7:30am  -   -   -  29 38 mph 1002.5mb 76f 76f
7:20am  -   -   -  29 36 mph 1002.5mb 76f 76f
7:10am  -   -   -  27 36 mph 1002.5mb 76f 75f
7:00am  -   -   -  29 36 mph 1002.5mb 76f 75f
6:50am 9.5ft 9s 6s 27 34 mph 1002.4mb 76f 75f
6:40am 9.5ft  -  6s 27 34 mph 1002.3mb 76f 76f
6:30am  -   -   -  27 34 mph 1002.1mb 76f -
6:20am  -   -   -  27 34 mph 1002mb 76f 76f
6:10am  -   -   -  29 36 mph 1001.9mb 76f 76f
6:00am  -   -   -  29 36 mph 1001.8mb 76f 77f
5:50am 9ft 7s 6s 27 36 mph 1001.5mb 76f 77f
5:40am  -   -   -  27 36 mph 1001.5mb 76f 77f
5:30am  -   -   -  25 31 mph 1001.5mb 76f 76f
5:20am  -   -   -  25 34 mph 1001.5mb 76f 76f
5:10am  -   -   -  27 34 mph 1001.1mb 76f 77f
5:00am  -   -   -  27 40 mph 1001mb 76f 77f
4:50am 8ft 7s 5s 29 36 mph 1001mb 76f 77f
4:40am  -   -   -  29 36 mph 1001.1mb 76f 77f
4:30am  -   -   -  29 40 mph 1001.1mb 76f 77f
4:20am  -   -   -  29 40 mph 1001.1mb 76f 77f
4:10am  -   -   -  29 38 mph 1001mb 76f 77f
4:00am  -   -   -  29 36 mph 1001mb 76f 77f
3:50am 8ft 7s 5s 29 38 mph 1001mb 76f 77f
3:40am 8ft  -  5s 31 38 mph 1001mb 76f 77f
3:30am  -   -   -  29 38 mph 1001mb 76f 77f
3:20am  -   -   -  29 38 mph 1000.9mb 76f 77f
3:10am  -   -   -  31 38 mph 1001mb 76f 77f
3:00am  -   -   -  29 38 mph 1001mb 76f 77f
2:50am 7ft 8s 5s 27 36 mph 1001mb 76f 76f
2:40am 7ft  -  5s 29 38 mph 1000.9mb 76f 76f
2:30am  -   -   -  29 36 mph 1000.9mb 76f 76f
2:20am  -   -   -  29 36 mph 1001mb 76f 76f
2:10am  -   -   -  25 31 mph 1000.6mb 76f 76f
2:00am  -   -   -  25 29 mph 1000.6mb 76f 76f
1:50am 7ft 8s 5s 25 34 mph 1000.9mb 76f 75f
1:40am 7ft  -  5s 25 31 mph 1001.1mb 76f 75f
1:30am  -   -   -  22 29 mph 1001.5mb 76f 73f
1:20am  -   -   -  25 31 mph 1001.6mb 76f 73f
1:10am  -   -   -  25 31 mph 1001.5mb 76f 73f
1:00am  -   -   -  27 34 mph 1001.6mb 76f 73f
12:50am 8ft 8s 6s 25 31 mph 1002mb 76f 73f
12:40am 8ft  -  6s 27 36 mph 1002mb 77f 73f
12:30am  -   -   -  31 40 mph 1002.4mb 77f 74f
12:20am  -   -   -  29 36 mph 1002.1mb 77f 75f
12:10am  -   -   -  27 34 mph 1002.4mb 77f 75f
12:00am  -   -   -  27 34 mph 1002.5mb 77f 75f
Wed 05/24 11:50pm 7ft 7s 5s 27 34 mph 1002.5mb 77f 75f
11:40pm 7ft  -  5s 25 31 mph 1002.5mb 77f 75f
11:30pm  -   -   -  25 31 mph 1002.5mb 77f 75f
11:20pm  -   -   -  22 31 mph 1002.5mb 77f 75f
11:10pm  -   -   -  27 31 mph 1002.8mb 77f 75f
11:00pm  -   -   -  25 31 mph 1003mb 77f 75f
10:50pm 6ft 8s 6s 25 34 mph 1003.3mb 77f 75f
10:40pm 6ft  -  6s 25 29 mph 1003.3mb 77f 75f
10:30pm  -   -   -  22 29 mph 1003.1mb 77f 75f
10:20pm  -   -   -  22 27 mph 1003.1mb 77f 75f
10:10pm  -   -   -  20 27 mph 1003.3mb 77f 75f
10:00pm  -   -   -  22 27 mph 1003.1mb 77f 74f
9:50pm 6ft 8s 6s 22 27 mph 1003.3mb 77f 75f
9:40pm 6ft  -  6s 22 29 mph 1003.3mb 77f 75f
9:30pm  -   -   -  22 29 mph 1003.5mb 77f 75f
9:20pm  -   -   -  22 27 mph 1003.6mb 77f 74f
9:10pm  -   -   -  22 27 mph 1003.6mb 77f 74f
9:00pm  -   -   -  20 25 mph 1003.9mb 77f 74f
8:50pm 5.5ft 8s 5s 20 27 mph 1003.9mb 77f 74f
8:40pm 5.5ft  -  5s 22 27 mph 1003.9mb 77f 74f
8:30pm  -   -   -  20 27 mph 1004mb 77f 74f
8:20pm  -   -   -  20 25 mph 1003.9mb 77f 74f
8:10pm  -   -   -  18 25 mph 1003.9mb 77f 74f
8:00pm  -   -   -  18 25 mph 1004mb 77f 74f
7:50pm 6ft 8s 6s 16 22 mph 1004.3mb 77f 73f
7:40pm  -   -   -  18 22 mph 1004.4mb 77f 73f
7:30pm  -   -   -  16 20 mph 1004.3mb 77f 73f
7:20pm  -   -   -  16 18 mph 1004.4mb 77f 72f
7:10pm  -   -   -  16 18 mph 1004.4mb 77f 72f
7:00pm  -   -   -  18 20 mph 1004.5mb 77f 72f
6:50pm 7ft 8s 6s 20 22 mph 1004.8mb 77f 72f
6:40pm  -   -   -  20 25 mph 1004.8mb 77f 73f
6:30pm  -   -   -  18 22 mph 1004.6mb 77f 73f
6:20pm  -   -   -  22 27 mph 1005mb 77f 73f
6:10pm  -   -   -  27 36 mph 1004.9mb 77f 74f
6:00pm  -   -   -  20 25 mph 1004.8mb 77f 75f
5:50pm 6.5ft 8s 5s 20 25 mph 1005mb 77f 75f
5:40pm  -   -   -  18 25 mph 1004.8mb 77f 75f
5:30pm  -   -   -  16 20 mph 1004.9mb 77f 75f
5:20pm  -   -   -  18 22 mph 1004.9mb 77f 74f
5:10pm  -   -   -  22 29 mph 1004.6mb 77f 74f
5:00pm  -   -   -  25 29 mph 1004.4mb 77f 75f
4:50pm 5.5ft 8s 5s 25 31 mph 1004mb 77f 75f
4:40pm 5.5ft  -  5s 25 34 mph 1003.9mb 77f 76f
4:30pm  -   -   -  20 27 mph 1004mb 77f 76f
4:20pm  -   -   -  18 22 mph 1004.5mb 77f 76f
4:10pm  -   -   -  18 25 mph 1004.3mb 77f 77f
4:00pm  -   -   -  20 27 mph 1004.5mb 77f 78f
3:50pm 6ft 8s 6s 13 20 mph 1004.6mb 77f 78f
3:40pm  -   -   -  16 18 mph 1004.8mb 77f 78f
3:30pm  -   -   -  16 20 mph 1005.3mb 77f 78f
3:20pm  -   -   -  16 20 mph 1005.5mb 77f 78f
3:10pm  -   -   -  18 22 mph 1005.6mb 77f 78f
3:00pm  -   -   -  16 20 mph 1005.8mb 77f 78f
2:50pm 7ft 8s 6s 16 20 mph 1005.6mb 77f 78f
2:40pm 7ft  -  6s 16 20 mph 1005.5mb 77f 78f
2:30pm  -   -   -  18 25 mph 1005.9mb 77f 78f
2:20pm  -   -   -  20 27 mph 1005.9mb 77f 78f
2:10pm  -   -   -  20 27 mph 1005.9mb 77f 78f
2:00pm  -   -   -  20 25 mph 1005.9mb 77f 78f
1:50pm 7ft 8s 6s 18 25 mph 1005.9mb 77f 77f
1:40pm  -   -   -  18 22 mph 1005.9mb 77f 77f
1:30pm  -   -   -  20 27 mph 1005.8mb 77f 77f
1:20pm  -   -   -  20 25 mph 1005.8mb 77f 77f
1:10pm  -   -   -  18 25 mph 1005.8mb 77f 77f
1:00pm  -   -   -  20 25 mph 1005.9mb 77f 77f
12:50pm 8ft 8s 6s 20 27 mph 1005.6mb 77f 77f
12:40pm 8ft  -  6s 20 27 mph 1006mb 77f 77f
12:30pm  -   -   -  22 27 mph 1005.9mb 77f 77f
12:20pm  -   -   -  20 27 mph 1005.9mb 77f 77f
12:10pm  -   -   -  20 25 mph 1005.8mb 77f 77f
12:00pm  -   -   -  20 25 mph 1006mb 77f 77f
11:50am 8ft 9s 6s 18 25 mph 1006mb 77f 77f
11:40am 8ft  -  6s 20 25 mph 1006mb 77f 77f
11:30am  -   -   -  22 27 mph 1006.1mb 77f 77f
11:20am  -   -   -  22 27 mph 1006mb 77f 77f
11:10am  -   -   -  20 27 mph 1005.8mb 77f 77f
11:00am  -   -   -  22 27 mph 1005.9mb 77f 77f
10:50am 8ft 8s 6s 20 25 mph 1005.9mb 77f 77f
10:40am 8ft  -  6s 20 25 mph 1005.6mb 77f 77f
10:30am  -   -   -  20 27 mph 1005.5mb 77f 77f
10:20am  -   -   -  20 27 mph 1005.8mb 77f 77f
10:10am  -   -   -  22 29 mph 1005.6mb 77f 77f
10:00am  -   -   -  25 29 mph 1005.6mb 77f 77f
9:50am 8ft 8s 6s 22 29 mph 1005.6mb 77f 77f
9:40am  -   -   -  25 29 mph 1005.5mb 77f 77f
9:30am  -   -   -  22 29 mph 1006mb 77f 77f
9:20am  -   -   -  22 29 mph 1006.1mb 77f 77f
9:10am  -   -   -  22 29 mph 1006.3mb 77f 77f
9:00am  -   -   -  25 29 mph 1006.1mb - 77f
8:50am 7ft 8s 6s 22 27 mph 1006mb 77f 77f
8:40am  -   -   -  18 22 mph 1005.8mb 77f 76f
8:30am  -   -   -  20 27 mph 1005.8mb 77f 76f
8:20am  -   -   -  20 27 mph 1005.6mb 77f 76f
8:10am  -   -   -  25 31 mph 1005.5mb 77f 75f
8:00am  -   -   -  25 34 mph 1005.5mb 77f 75f
7:50am 8ft 8s 6s 27 36 mph 1005.5mb 77f 76f
7:40am 8ft  -  6s 27 34 mph 1005.3mb 77f 77f
7:30am  -   -   -  27 34 mph 1005.3mb 77f 78f
7:20am  -   -   -  27 34 mph 1005.4mb 77f 78f
7:10am  -   -   -  27 34 mph 1005.4mb 77f 78f
7:00am  -   -   -  27 34 mph 1005.1mb 77f 78f
6:50am 8.5ft 8s 6s 27 31 mph 1005mb 77f 78f
6:40am 8.5ft  -  6s 27 36 mph 1004.9mb 77f 77f
6:30am  -   -   -  29 36 mph 1004.8mb 77f 78f
6:20am  -   -   -  25 31 mph 1004.8mb 77f 78f
6:10am  -   -   -  27 31 mph 1004.5mb 77f 78f
6:00am  -   -   -  25 34 mph 1004.6mb - 78f
5:50am 8ft 8s 6s 25 31 mph 1004.9mb 77f 78f
5:40am  -   -   -  22 29 mph 1004.8mb 77f 78f
5:30am  -   -   -  25 31 mph 1005mb 77f 78f
5:20am  -   -   -  25 34 mph 1004.9mb 77f 78f
5:10am  -   -   -  22 31 mph 1004.9mb 77f 78f
5:00am  -   -   -  27 34 mph 1004.8mb 77f 78f
4:50am 8ft 8s 6s 25 34 mph 1004.8mb 77f 78f
4:40am 8ft  -  6s 25 36 mph 1004.6mb 77f 78f
4:30am  -   -   -  25 31 mph 1004.6mb 77f 78f
4:20am  -   -   -  25 31 mph 1004.8mb 77f 78f
4:10am  -   -   -  25 31 mph 1004.8mb 77f 78f
4:00am  -   -   -  25 29 mph 1004.8mb 77f 78f
3:50am 8ft 8s 6s 25 31 mph 1004.9mb 77f 78f
3:40am 8ft  -  6s 25 31 mph 1005mb 77f 78f
3:30am  -   -   -  25 31 mph 1005mb 77f 78f
3:20am  -   -   -  25 34 mph 1004.9mb 77f 77f
3:10am  -   -   -  27 34 mph 1004.8mb 77f 77f
3:00am  -   -   -  29 38 mph 1004.6mb 77f 77f
2:50am 7ft 7s 5s 29 38 mph 1004.6mb 77f 78f
2:40am  -   -   -  27 34 mph 1004.5mb 77f 77f
2:30am  -   -   -  27 34 mph 1004.4mb 77f 77f
2:20am  -   -   -  22 29 mph 1004.5mb 77f 78f
2:10am  -   -   -  20 27 mph 1004.8mb 77f 78f
2:00am  -   -   -  20 25 mph 1005mb 77f 78f
1:50am 7ft 7s 6s 18 25 mph 1004.9mb 77f 77f
1:40am  -   -   -  18 25 mph 1005mb 77f 77f
1:30am  -   -   -  16 18 mph 1005.3mb 77f 77f
1:20am  -   -   -  16 20 mph 1005.3mb 77f 77f
1:10am  -   -   -  18 25 mph 1005.3mb 77f 77f
1:00am  -   -   -  20 25 mph 1005.4mb 77f 77f
12:50am 6ft 7s 5s 22 27 mph 1005.8mb 77f 77f
12:40am  -   -   -  20 27 mph 1006mb 77f 77f
12:30am  -   -   -  20 27 mph 1006mb 77f 76f
12:20am  -   -   -  22 29 mph 1006mb 77f 75f
12:10am  -   -   -  20 25 mph 1006mb 77f 75f
12:00am  -   -   -  22 27 mph 1006mb 77f 74f
Tue 05/23 11:50pm 6ft 7s 5s 20 27 mph 1006.3mb 77f 73f
11:40pm  -   -   -  22 27 mph 1006.4mb 77f 73f
11:30pm  -   -   -  20 25 mph 1006.1mb 77f 72f
11:20pm  -   -   -  18 25 mph 1006.4mb 77f 72f
11:10pm  -   -   -  20 27 mph 1006.5mb 77f 71f
11:00pm  -   -   -  22 27 mph 1006.4mb - 71f
10:50pm 5.5ft 7s 6s 27 34 mph 1006.9mb 77f 70f
10:40pm  -   -   -  22 31 mph 1007.5mb 77f 71f
10:30pm  -   -   -  18 22 mph 1006mb 77f 71f
10:20pm  -   -   -  16 20 mph 1006.6mb 77f 71f
10:10pm  -   -   -  16 22 mph 1006.8mb 77f 71f
10:00pm  -   -   -  16 20 mph 1006.9mb 77f 71f
9:50pm 5.5ft 8s 5s 11 18 mph 1006.6mb 77f 71f
9:40pm 5.5ft  -  5s 11 13 mph 1006.8mb 78f 71f
9:30pm  -   -   -  11 18 mph 1006.8mb 78f 72f
9:20pm  -   -   -  13 20 mph 1006.6mb 78f 71f
9:10pm  -   -   -  18 25 mph 1006.6mb 78f 72f
9:00pm  -   -   -  20 29 mph 1006.8mb 78f 72f
8:50pm 6ft 7s 5s 18 27 mph 1007mb 78f 72f
8:40pm 6ft  -  5s 18 29 mph 1007.4mb 78f 73f
8:30pm  -   -   -  11 16 mph 1006.9mb 77f 73f
8:20pm  -   -   -  13 22 mph 1007mb 77f 72f
8:10pm  -   -   -  18 22 mph 1007.5mb 78f 72f
8:00pm  -   -   -  22 27 mph 1007.8mb - 73f
7:50pm 6ft 7s 5s 20 29 mph 1007.5mb 78f 77f
7:40pm 6ft  -  5s 20 22 mph 1007.5mb 78f 78f
7:30pm  -   -   -  20 25 mph 1007.3mb 78f 78f
7:20pm  -   -   -  20 25 mph 1007.3mb 78f 78f
7:10pm  -   -   -  20 27 mph 1007.4mb 78f 78f
7:00pm  -   -   -  22 27 mph 1007.5mb 78f 78f
6:50pm 6ft 7s 5s 22 29 mph 1007.5mb 78f 78f
6:40pm 6ft  -  5s 22 27 mph 1007.4mb 78f 78f
6:30pm  -   -   -  22 27 mph 1007.3mb 78f 78f
6:20pm  -   -   -  22 29 mph 1007.5mb 78f 78f
6:10pm  -   -   -  22 27 mph 1007.5mb 78f 78f
6:00pm  -   -   -  25 31 mph 1007.5mb 78f 78f
5:50pm 6ft 7s 5s 25 31 mph 1007.5mb 78f 78f
5:40pm  -   -   -  25 31 mph 1007.5mb 78f 78f
5:30pm  -   -   -  25 31 mph 1007.5mb - 78f
5:20pm  -   -   -  25 34 mph 1007.4mb 78f 78f
5:10pm  -   -   -  25 31 mph 1007.4mb 78f 78f
5:00pm  -   -   -  25 29 mph 1007.4mb - 78f
4:50pm 5.5ft 7s 5s 22 29 mph 1007.5mb 78f 78f
4:40pm 5.5ft  -  5s 20 27 mph 1007.5mb 78f 78f
4:30pm  -   -   -  22 27 mph 1007.6mb 78f 78f
4:20pm  -   -   -  22 29 mph 1007.6mb 78f 78f
4:10pm  -   -   -  25 31 mph 1007.6mb 78f 78f
4:00pm  -   -   -  22 27 mph 1007.6mb 78f 78f
3:50pm 5.5ft 7s 5s 22 27 mph 1007.9mb 78f 78f
3:40pm  -   -   -  22 27 mph 1007.9mb 78f 78f
3:30pm  -   -   -  22 27 mph 1007.8mb 78f 78f
3:20pm  -   -   -  20 25 mph 1008mb 78f 78f
3:10pm  -   -   -  20 25 mph 1008.3mb 78f 78f
3:00pm  -   -   -  20 25 mph 1008.1mb 78f 78f
2:50pm 5ft 7s 5s 18 22 mph 1008.3mb 78f 78f
2:40pm 5ft  -  5s 18 22 mph 1008.3mb 78f 78f
2:30pm  -   -   -  18 22 mph 1008.5mb 78f 78f
2:20pm  -   -   -  18 20 mph 1008.5mb 78f 78f
2:10pm  -   -   -  18 20 mph 1008.9mb 78f 78f
2:00pm  -   -   -  18 20 mph 1009.1mb - 78f
1:50pm 6ft 6s 5s 18 22 mph 1009.3mb 78f 78f
1:40pm 6ft  -  5s 18 20 mph 1009.5mb 77f 78f
1:30pm  -   -   -  18 22 mph 1009.8mb 77f 78f
1:20pm  -   -   -  18 22 mph 1010mb 77f 78f
1:10pm  -   -   -  18 20 mph 1010.1mb 77f 78f
1:00pm  -   -   -  18 22 mph 1010.1mb 77f 78f
12:50pm 5ft 7s 5s 18 20 mph 1010.1mb 77f 78f
12:40pm 5ft  -  5s 18 22 mph 1010.3mb 77f 78f
12:30pm  -   -   -  16 20 mph 1010.5mb 77f 78f
12:20pm  -   -   -  18 22 mph 1010.5mb 77f 78f
12:10pm  -   -   -  18 22 mph 1010.5mb 77f 78f
12:00pm  -   -   -  18 22 mph 1010.6mb 77f 78f
11:50am 5.5ft 6s 5s 20 25 mph 1010.8mb 77f 78f
11:40am 5.5ft  -  5s 18 25 mph 1010.6mb 77f 78f
11:30am  -   -   -  20 27 mph 1010.6mb 77f 78f
11:20am  -   -   -  20 25 mph 1010.6mb 77f 78f
11:10am  -   -   -  20 25 mph 1010.5mb 77f 78f
11:00am  -   -   -  20 25 mph 1010.5mb 77f 77f
10:50am 5.5ft 6s 5s 22 27 mph 1010.6mb 77f 77f
10:40am  -   -   -  22 27 mph 1010.8mb 77f 77f
10:30am  -   -   -  25 31 mph 1010.8mb 77f 76f
10:20am  -   -   -  25 31 mph 1010.9mb 77f 77f
10:10am  -   -   -  22 29 mph 1010.9mb 77f 76f
10:00am  -   -   -  25 29 mph 1010.9mb 77f 76f
9:50am 5ft 6s 5s 25 29 mph 1010.9mb 77f 76f
9:40am  -   -   -  25 29 mph 1011mb 77f 75f
9:30am  -   -   -  22 29 mph 1011.1mb 77f 75f
9:20am  -   -   -  22 27 mph 1011.1mb 77f 75f
9:10am  -   -   -  20 27 mph 1011.3mb 77f 75f
9:00am  -   -   -  18 25 mph 1011.3mb 77f 75f
8:50am 4.5ft 6s 5s 20 25 mph 1011.5mb 77f 75f
8:40am  -   -   -  22 27 mph 1011.5mb 77f 75f
8:30am  -   -   -  20 25 mph 1011.5mb 77f 75f
8:20am  -   -   -  20 25 mph 1011.6mb 77f 75f
8:10am  -   -   -  18 25 mph 1011.6mb 77f 74f
8:00am  -   -   -  20 25 mph 1011.5mb 77f 73f
7:50am 4ft 6s 5s 22 27 mph 1011.8mb 77f 74f
7:40am  -   -   -  22 29 mph 1011.9mb 77f 74f
7:30am  -   -   -  20 22 mph 1011.8mb 77f 74f
7:20am  -   -   -  18 22 mph 1011.5mb 77f 74f
7:10am  -   -   -  16 20 mph 1011.5mb 77f 74f
7:00am  -   -   -  13 16 mph 1011.5mb 77f 73f
6:50am 3.5ft 5s 5s 11 13 mph 1011.5mb 77f 73f
6:40am 3.5ft  -  5s 9 13 mph 1011.5mb 77f 72f
6:30am  -   -   -  9 11 mph 1011.5mb 77f 72f
6:20am  -   -   -  11 13 mph 1011.5mb 76f 71f
6:10am  -   -   -  13 18 mph 1011.5mb 77f 72f
6:00am  -   -   -  18 20 mph 1011.8mb - 72f
5:50am 3ft 5s 5s 16 25 mph 1011.6mb 77f 72f
5:40am 3ft  -  5s 13 22 mph 1012mb 77f 72f
5:30am  -   -   -  9 18 mph 1012mb 77f 72f
5:20am  -   -   -  7 9 mph 1012.3mb 77f 73f
5:10am  -   -   -  2 7 mph 1012mb 77f 72f
5:00am  -   -   -  2 4 mph 1012.1mb 77f 72f
4:50am 2.5ft 5s 5s 4 7 mph 1012mb 77f 72f
4:40am 2.5ft  -  5s 9 13 mph 1012.4mb 77f 72f
4:30am  -   -   -  11 13 mph 1012.4mb - 73f
4:20am  -   -   -  9 11 mph 1012.4mb 77f 72f
4:10am  -   -   -  7 11 mph 1012.1mb 77f 72f
4:00am  -   -   -  9 11 mph 1012mb 77f 71f
3:50am 2.5ft 9s 5s 7 9 mph 1012.4mb 77f 71f
3:40am 2.5ft  -  5s 4 7 mph 1012.5mb 77f 71f
3:30am  -   -   -  7 9 mph 1012.4mb 77f 71f
3:20am  -   -   -  4 7 mph 1012.8mb 77f 71f
3:10am  -   -   -  4 7 mph 1012.9mb 77f -
3:00am  -   -   -  4 7 mph 1013mb 77f 72f
2:50am 3ft 4s 4s 4 7 mph 1013mb 77f 72f
2:40am  -   -   -  7 9 mph 1013mb 77f 72f
2:30am  -   -   -  9 11 mph 1013mb 77f 72f
2:20am  -   -   -  9 11 mph 1013.1mb 77f 72f
2:10am  -   -   -  9 11 mph 1013.1mb 77f 71f
2:00am  -   -   -  11 13 mph 1013.3mb 77f 71f
1:50am 3.5ft 4s 4s 13 16 mph 1013.5mb 77f 71f
1:40am 3.5ft  -  4s 11 13 mph 1013.6mb 77f 71f
1:30am  -   -   -  9 11 mph 1014mb 77f 71f
1:20am  -   -   -  9 11 mph 1014.3mb 77f 71f
1:10am  -   -   -  11 13 mph 1014.5mb 77f 70f
1:00am  -   -   -  11 13 mph 1014.5mb 77f 71f
12:50am 3.5ft 8s 4s 11 16 mph 1014.9mb 77f 71f
12:40am  -   -   -  13 16 mph 1015.1mb 77f 70f
12:30am  -   -   -  13 18 mph 1015mb 77f 70f
12:20am  -   -   -  16 18 mph 1015.1mb 77f 70f
12:10am  -   -   -  18 20 mph 1015.1mb 77f 70f
12:00am  -   -   -  18 22 mph 1015.5mb 77f 70f
Mon 05/22 11:50pm 3.5ft 5s 4s 20 25 mph 1015.6mb 77f 70f
11:40pm 3.5ft  -  4s 20 25 mph 1015.6mb 77f 70f
11:30pm  -   -   -  22 27 mph 1015.6mb 77f 70f
11:20pm  -   -   -  25 29 mph 1015.4mb 77f 70f
11:10pm  -   -   -  13 22 mph 1015.5mb 77f 74f
11:00pm  -   -   -  16 18 mph 1015.3mb 77f 78f
10:50pm 3.5ft 9s 4s 16 18 mph 1015.4mb 77f 78f
10:40pm 3.5ft  -  4s 16 20 mph 1015.5mb 77f 78f
10:30pm  -   -   -  13 18 mph 1015.4mb 77f 78f
10:20pm  -   -   -  13 18 mph 1015.5mb 77f 78f
10:10pm  -   -   -  16 18 mph 1015.5mb 77f 78f
10:00pm  -   -   -  16 18 mph 1015.5mb 77f 78f
9:50pm 3.5ft 8s 4s 16 20 mph 1015.4mb 77f 78f
9:40pm 3.5ft  -  4s 16 18 mph 1015.5mb 77f 78f
9:30pm  -   -   -  16 20 mph 1015.5mb 77f 78f
9:20pm  -   -   -  16 20 mph 1015.5mb 77f 78f
9:10pm  -   -   -  16 20 mph 1015.5mb 77f 78f
9:00pm  -   -   -  16 20 mph 1015.6mb 77f 78f
8:50pm 3.5ft 9s 4s 16 18 mph 1015.5mb 77f 78f
8:40pm  -   -   -  16 18 mph 1015.6mb 77f 78f
8:30pm  -   -   -  16 18 mph 1015.6mb 77f 78f
8:20pm  -   -   -  16 18 mph 1015.6mb 77f 78f
8:10pm  -   -   -  16 20 mph 1015.5mb 77f 78f
8:00pm  -   -   -  16 20 mph 1015.5mb 78f -
7:50pm 3.5ft 7s 4s 16 20 mph 1015.4mb 78f 78f
7:40pm 3.5ft  -  4s 16 20 mph 1015mb 78f 78f
7:30pm  -   -   -  16 18 mph 1014.8mb 78f 78f
7:20pm  -   -   -  16 20 mph 1014.6mb 78f 78f
7:10pm  -   -   -  18 20 mph 1014.5mb 78f 78f
7:00pm  -   -   -  18 22 mph 1014.5mb 78f 78f
6:50pm 3.5ft 8s 4s 18 22 mph 1014.5mb 78f 78f
6:40pm 3.5ft  -  4s 18 22 mph 1014.6mb 78f 78f
6:30pm  -   -   -  18 22 mph 1014.8mb 78f 78f
6:20pm  -   -   -  18 22 mph 1014.9mb 78f 78f
6:10pm  -   -   -  18 22 mph 1014.8mb 78f 78f
6:00pm  -   -   -  18 20 mph 1014.8mb - 78f
5:50pm 3ft 9s 4s 18 20 mph 1014.5mb 78f 78f
5:40pm  -   -   -  18 22 mph 1014.4mb 78f 78f
5:30pm  -   -   -  18 20 mph 1014.3mb 78f 78f
5:20pm  -   -   -  18 20 mph 1014.4mb 78f 78f
5:10pm  -   -   -  16 20 mph 1014.3mb 78f 78f
5:00pm  -   -   -  16 20 mph 1014.3mb 78f 78f
4:50pm 3ft 8s 4s 16 20 mph 1014.4mb 78f 78f
4:40pm 3ft  -  4s 16 20 mph 1014.5mb 78f 78f
4:30pm  -   -   -  16 20 mph 1014.6mb 78f 78f
4:20pm  -   -   -  18 20 mph 1014.8mb 78f 78f
4:10pm  -   -   -  16 18 mph 1014.9mb 78f 78f
4:00pm  -   -   -  16 18 mph 1015.1mb - 78f
3:50pm 3.5ft 8s 4s 16 18 mph 1015.1mb 78f 78f
3:40pm 3.5ft  -  4s 16 20 mph 1015.4mb 78f 78f
3:30pm  -   -   -  16 20 mph 1015.5mb 78f 78f
3:20pm  -   -   -  16 18 mph 1015.8mb 78f 78f
3:10pm  -   -   -  16 18 mph 1016mb 78f 78f
3:00pm  -   -   -  16 18 mph 1016.1mb 78f 78f
2:50pm 3ft 9s 4s 16 18 mph 1016.4mb 78f 78f
2:40pm 3ft  -  4s 13 18 mph 1016.5mb 78f 78f
2:30pm  -   -   -  13 16 mph 1016.6mb 77f 78f
2:20pm  -   -   -  13 18 mph 1016.8mb 77f 78f
2:10pm  -   -   -  13 18 mph 1017mb 77f 78f
2:00pm  -   -   -  13 16 mph 1017mb 77f 78f
1:50pm 3.5ft 8s 4s 13 16 mph 1017.1mb 77f 78f
1:40pm 3.5ft  -  4s 13 18 mph 1017.3mb 77f 77f
1:30pm  -   -   -  13 16 mph 1017.4mb 77f 78f
1:20pm  -   -   -  13 18 mph 1017.4mb 77f 77f
1:10pm  -   -   -  13 18 mph 1017.5mb 77f 77f
1:00pm  -   -   -  13 18 mph 1017.8mb 77f 77f
12:50pm 3ft 5s 5s 13 18 mph 1017.9mb 77f 77f
12:40pm  -   -   -  13 16 mph 1018mb 77f 77f
12:30pm  -   -   -  13 16 mph 1018mb 77f 77f
12:20pm  -   -   -  13 18 mph 1018.4mb 77f 77f
12:10pm  -   -   -  13 16 mph 1018.5mb 77f 77f
12:00pm  -   -   -  13 16 mph 1018.6mb 77f 77f
11:50am 3.5ft 5s 4s 13 16 mph 1018.6mb 77f 77f
11:40am 3.5ft  -  4s 13 18 mph 1018.6mb 77f 77f
11:30am  -   -   -  13 18 mph 1018.8mb 77f 77f
11:20am  -   -   -  16 18 mph 1018.6mb 77f 77f
11:10am  -   -   -  16 18 mph 1018.6mb 77f 77f
11:00am  -   -   -  13 18 mph 1018.6mb 77f 77f
10:50am 3.5ft 9s 4s 13 18 mph 1018.6mb 77f 77f
10:40am 3.5ft  -  4s 16 18 mph 1018.6mb 77f 77f
10:30am  -   -   -  16 18 mph 1018.6mb 77f 77f
10:20am  -   -   -  16 18 mph 1018.8mb 77f 77f
10:10am  -   -   -  16 20 mph 1018.9mb 77f 77f
10:00am  -   -   -  16 18 mph 1019mb 77f 77f
9:50am 3.5ft 9s 5s 16 20 mph 1019mb 77f 77f
9:40am  -   -   -  16 20 mph 1019mb 77f 77f
9:30am  -   -   -  16 18 mph 1019mb 77f 77f
9:20am  -   -   -  16 18 mph 1019mb 77f 77f
9:10am  -   -   -  16 20 mph 1019mb 77f 77f
9:00am  -   -   -  16 18 mph 1019.3mb 77f 77f
8:50am 3.5ft 9s 5s 16 18 mph 1019.3mb 77f 77f
8:40am 3.5ft  -  5s 16 20 mph 1019.1mb 77f 77f
8:30am  -   -   -  16 18 mph 1019.1mb 77f 77f
8:20am  -   -   -  16 18 mph 1019mb 78f 77f
8:10am  -   -   -  16 20 mph 1019mb 78f 77f
8:00am  -   -   -  16 20 mph 1019mb 78f 77f
7:50am 3.5ft 10s 5s 16 20 mph 1019mb 78f 77f
7:40am 3.5ft  -  5s 16 20 mph 1019mb 78f 77f
7:30am  -   -   -  16 20 mph 1018.9mb 78f 77f
7:20am  -   -   -  16 20 mph 1018.9mb 78f 77f
7:10am  -   -   -  16 20 mph 1018.9mb 78f 77f
7:00am  -   -   -  16 22 mph 1018.8mb 78f 77f
6:50am 3.5ft 8s 4s 16 20 mph 1018.8mb 78f 77f
6:40am 3.5ft  -  4s 18 20 mph 1018.8mb 78f 77f
6:30am  -   -   -  18 20 mph 1018.8mb 78f 77f
6:20am  -   -   -  18 20 mph 1018.9mb 78f 77f
6:10am  -   -   -  18 22 mph 1018.6mb 78f 77f
6:00am  -   -   -  18 22 mph 1018.5mb 78f 77f
5:50am 3.5ft 9s 4s 16 20 mph 1018.4mb 78f 77f
5:40am 3.5ft  -  4s 18 22 mph 1018.4mb 78f 77f
5:30am  -   -   -  18 22 mph 1018.4mb 78f 77f
5:20am  -   -   -  18 20 mph 1018.4mb 78f 77f
5:10am  -   -   -  18 20 mph 1018.3mb 78f 77f
5:00am  -   -   -  16 20 mph 1018.4mb 78f 77f
4:50am 3.5ft 9s 4s 16 20 mph 1018.4mb 78f 77f
4:40am 3.5ft  -  4s 16 20 mph 1018.4mb 78f 77f
4:30am  -   -   -  16 20 mph 1018.4mb 78f 77f
4:20am  -   -   -  16 20 mph 1018.4mb 78f 77f
4:10am  -   -   -  16 18 mph 1018.3mb 78f 77f
4:00am  -   -   -  16 20 mph 1018.3mb 78f 77f
3:50am 3ft 8s 5s 16 20 mph 1018.4mb 78f 77f
3:40am  -   -   -  16 20 mph 1018.4mb 78f 77f
3:30am  -   -   -  16 18 mph 1018.4mb 78f 77f
3:20am  -   -   -  16 18 mph 1018.5mb 78f 77f
3:10am  -   -   -  13 18 mph 1018.4mb 78f 77f
3:00am  -   -   -  16 18 mph 1018.4mb 78f 77f
2:50am 3ft 8s 5s 16 20 mph 1018.4mb 78f 77f
2:40am 3ft  -  5s 13 18 mph 1018.5mb 78f 77f
2:30am  -   -   -  16 18 mph 1018.5mb 78f 77f
2:20am  -   -   -  16 20 mph 1018.6mb 78f 77f
2:10am  -   -   -  13 18 mph 1018.8mb 78f 77f
2:00am  -   -   -  13 18 mph 1018.9mb 78f 78f
1:50am 3ft 8s 5s 13 18 mph 1019mb 78f 78f
1:40am  -   -   -  13 16 mph 1019.1mb 78f 78f
1:30am  -   -   -  13 16 mph 1019mb 78f 78f
1:20am  -   -   -  13 16 mph 1019.3mb 78f 78f
1:10am  -   -   -  11 16 mph 1019.3mb 78f 78f
1:00am  -   -   -  9 13 mph 1019.3mb 78f 78f
12:50am 2.5ft 8s 5s 9 11 mph 1019.4mb 78f 77f
12:40am  -   -   -  9 11 mph 1019.5mb 78f 77f
12:30am  -   -   -  9 11 mph 1019.5mb 78f 77f
12:20am  -   -   -  9 11 mph 1019.5mb 78f 77f
12:10am  -   -   -  9 11 mph 1019.5mb 78f 77f
12:00am  -   -   -  11 13 mph 1019.5mb 78f 76f
Sun 05/21 11:50pm 3ft 8s 5s 11 13 mph 1019.8mb 78f 76f
11:40pm 3ft  -  5s 11 13 mph 1019.9mb 78f 76f
11:30pm  -   -   -  11 13 mph 1020mb 78f 76f
11:20pm  -   -   -  11 13 mph 1020.1mb 78f 76f
11:10pm  -   -   -  11 13 mph 1020.3mb 78f 76f
11:00pm  -   -   -  11 13 mph 1020.4mb 78f 76f
10:50pm 3ft 8s 4s 11 13 mph 1020.3mb 78f 76f
10:40pm 3ft  -  4s 11 13 mph 1020.4mb 78f 76f
10:30pm  -   -   -  11 13 mph 1020.3mb 78f 76f
10:20pm  -   -   -  13 16 mph 1020mb 78f 76f
10:10pm  -   -   -  13 16 mph 1020mb 77f 76f
10:00pm  -   -   -  13 16 mph 1020mb 77f 76f
9:50pm 3ft 5s 5s 11 13 mph 1020.1mb 77f 76f
9:40pm  -   -   -  11 13 mph 1020.1mb 77f 76f
9:30pm  -   -   -  11 13 mph 1020.3mb 77f 76f
9:20pm  -   -   -  11 13 mph 1020.3mb 78f 76f
9:10pm  -   -   -  11 13 mph 1020mb 77f 76f
9:00pm  -   -   -  11 13 mph 1020.1mb 77f 76f
8:50pm 3ft 5s 4s 11 13 mph 1020.1mb 78f 76f
8:40pm 3ft  -  4s 11 13 mph 1020mb 78f 76f
8:30pm  -   -   -  11 13 mph 1020mb 77f 77f
8:20pm  -   -   -  11 13 mph 1020.3mb 77f 76f
8:10pm  -   -   -  11 16 mph 1020.3mb 78f 76f
8:00pm  -   -   -  13 16 mph 1020.1mb 78f 76f
7:50pm 3ft 5s 4s 13 16 mph 1020.1mb 77f 76f
7:40pm 3ft  -  4s 13 16 mph 1020.3mb 78f 76f
7:30pm  -   -   -  13 16 mph 1020.3mb 78f 76f
7:20pm  -   -   -  13 16 mph 1020mb 78f 76f
7:10pm  -   -   -  13 16 mph 1020mb 77f 76f
7:00pm  -   -   -  13 16 mph 1020mb 78f 76f
6:50pm 3.5ft 5s 4s 13 16 mph 1019.9mb 78f 76f
6:40pm  -   -   -  13 18 mph 1019.9mb 77f 76f